This demonstration page uses our WeatherBlox Daily Observations layout. Learn more.

Left ArrowRight Arrow

38.89511, -77.03637

Hourly Observations for June 17, 2022

Temp ( °F °C ) Dew Point ( °F °C ) Humidity (%) Winds ( mph kmh ) Pressure ( in mb ) Visibility ( mi km ) Precip ( " mm )
12:52 am 00:52 Cloudy 77 25 66 18.9 69 69 SSW 6 9 29.90 1013 10 16 0.00 0.00
1:52 am 01:52 Cloudy 77 25 65 18.3 66 66 W 9 15 29.91 1013 10 16 0.00 0.00
2:52 am 02:52 Cloudy 75 23.9 65 18.3 71 71 SSW 8 13 29.88 1012 10 16 0.00 0.00
3:52 am 03:52 Cloudy 75 23.9 66 18.9 74 74 SSW 7 11 29.86 1011 10 16 0.00 0.00
4:52 am 04:52 Mostly Cloudy 73 22.8 66 18.9 79 79 S 7 11 29.86 1011 10 16 0.00 0.00
5:52 am 05:52 Mostly Cloudy 73 22.8 67 19.4 81 81 SSW 8 13 29.86 1011 10 16 0.00 0.00
6:52 am 06:52 Mostly Cloudy 74 23.3 67 19.4 79 79 SSW 5 7 29.85 1011 10 16 0.00 0.00
7:52 am 07:52 Mostly Cloudy 77 25 69 20.6 77 77 S 9 15 29.85 1011 10 16 0.00 0.00
8:52 am 08:52 Partly Cloudy 80 26.7 70 21.1 71 71 S 9 15 29.84 1011 10 16 0.00 0.00
9:52 am 09:52 Partly Cloudy 83 28.3 72 22.2 70 70 S 12 19 29.83 1010 10 16 0.00 0.00
10:52 am 10:52 Mostly Sunny 89 31.7 71 21.7 55 55 SSW 12 19 29.81 1010 10 16 0.00 0.00
11:52 am 11:52 Partly Cloudy 93 33.9 68 20 44 44 WSW 14 22 29.80 1009 10 16 0.00 0.00
12:52 pm 12:52 Partly Cloudy 94 34.4 68 20 43 43 W 9 15 29.79 1009 10 16 0.00 0.00
1:52 pm 13:52 Partly Cloudy 98 36.7 63 17.2 32 32 W 16 26 29.75 1008 10 16 0.00 0.00
2:52 pm 14:52 Partly Cloudy 97 36.1 61 16.1 30 30 W 14 22 29.72 1007 10 16 0.00 0.00
3:52 pm 15:52 Mostly Cloudy 98 36.7 63 17.2 32 32 W 13 20 29.70 1006 10 16 0.00 0.00
4:21 pm 16:21 Mostly Cloudy 95 35 61 16.1 32 32 W 16 26 29.71 1006 10 16 0.00 0.00
4:52 pm 16:52 Mostly Cloudy 96 35.6 64 17.8 35 35 WNW 9 15 29.70 1006 10 16 0.00 0.00
5:52 pm 17:52 Partly Cloudy 96 35.6 60 15.6 30 30 WNW 17 28 29.68 1005 10 16 0.00 0.00
6:52 pm 18:52 Mostly Cloudy 93 33.9 56 13.3 29 29 NW 14 22 29.69 1006 10 16 0.00 0.00
7:52 pm 19:52 Partly Cloudy 90 32.2 55 12.8 31 31 NW 14 22 29.68 1005 10 16 0.00 0.00
8:52 pm 20:52 Mostly Clear 86 30 53 11.7 32 32 NNW 9 15 29.68 1005 10 16 0.00 0.00
9:52 pm 21:52 Mostly Clear 85 29.4 53 11.7 33 33 NNW 16 26 29.70 1006 10 16 0.00 0.00
10:52 pm 22:52 Mostly Clear 83 28.3 52 11.1 34 34 NNW 15 24 29.73 1007 10 16 0.00 0.00
11:52 pm 23:52 Mostly Clear 79 26.1 53 11.7 41 41 NNW 8 13 29.75 1007 10 16 0.00 0.00

Powered by AerisWeather